Regional Weather Roundup
Issued by NWS Albany, NY

Home | Current Version | Previous Version | Text Only | Print | Product List | Glossary On
Versions: 1 2 3 4 5 6 7 8 9 10 11 12 13 14 15 16 17 18 19 20 21 22 23 24 25 26 27
000
ASUS41 KALY 222310
RWRALY

NEW YORK STATE HOURLY WEATHER ROUNDUP
NATIONAL WEATHER SERVICE ALBANY NY
600 PM EST WED FEB 22 2017

NOTE: "FAIR" INDICATES FEW OR NO CLOUDS BELOW 12,000 FEET WITH NO
SIGNIFICANT WEATHER AND/OR NO OBSTRUCTIONS TO VISIBILITY.

NYZ032-033-038>043-046>054-057>066-NYZ062>081-082-084-230000-
EAST


CITY           SKY/WX    TMP DP  RH WIND       PRES   REMARKS
ALBANY         PTCLDY    53  34  48 CALM      29.86F
GLENS FALLS    CLEAR     48  34  58 CALM      29.85F
POUGHKEEPSIE   PTCLDY    48  38  68 CALM      29.88S
NEWBURGH       PTCLDY    50  41  71 S6        29.90S
MONTGOMERY     MOCLDY    50  40  68 S3        29.88S
WHITE PLAINS   PTCLDY    47  37  68 CALM      29.89F
ISLIP          CLOUDY    48  42  80 SW8       29.92S
NEW YORK CITY  MOCLDY    54  41  61 S8        29.90F
CENTRAL PARK   CLOUDY    53  40  61 S5        29.93S
$$

NYZ005>009-017-018-044>046-055-056-230000-
CENTRAL


CITY           SKY/WX    TMP DP  RH WIND       PRES   REMARKS
FULTON         CLOUDY    50  36  58 E3        29.81F
SYRACUSE       MOCLDY    51  37  58 E3        29.81F
ROME           PTCLDY    48  35  60 E5        29.84S
ELMIRA         LGT RAIN  54  48  80 CALM      29.83S
BINGHAMTON     CLOUDY    53  40  61 S5        29.84F
MONTICELLO     CLEAR     50  39  66 CALM      29.89S
$$

NYZ026>034-041>043-087-230000-
NORTH


CITY           SKY/WX    TMP DP  RH WIND       PRES   REMARKS
WATERTOWN      CLOUDY    50  40  68 NE3       29.81S
FORT DRUM      NOT AVBL
OGDENSBURG     MOCLDY    47  37  69 CALM      29.81F
MASSENA        MOCLDY    40  34  79 E6        29.84F
SARANAC LAKE   CLEAR     41  34  76 W3        29.80F
PLATTSBURGH    CLEAR     40  31  70 N7        29.85F
$$

NYZ001>004-010>016-019>021-085-230000-
WEST


CITY           SKY/WX    TMP DP  RH WIND       PRES   REMARKS
NIAGARA FALLS  CLOUDY    56  50  80 S13       29.78F
BUFFALO        CLOUDY    54  49  83 SW7       29.80S HAZE
DUNKIRK        CLOUDY    57  52  83 SW9       29.81R
JAMESTOWN      CLOUDY    52  48  87 S6        29.82F VSB 1/4
WELLSVILLE     LGT RAIN  54  50  86 VRB6      29.85F
ROCHESTER      CLOUDY    60  50  69 W5        29.80F
PENN YAN       MOCLDY    58  45  62 S9        29.81F
$$

             KEY
       WCI = WIND CHILL INDEX
       VSB = VISIBILITY
       HX  = HEAT INDEX
$$




USA.gov is the U.S. government's official web portal to all federal, state and local government web resources and services.